Regional Weather Roundup
Issued by NWS

Home | Current Version | Previous Version | Graphics & Text | Print | Product List | Glossary On
Versions: 1 2 3 4 5 6 7 8 9 10 11 12 13 14 15 16 17 18 19 20 21 22 23 24 25 26 27 28 29 30 31 32 33 34 35 36 37 38 39 40 41 42 43 44 45 46 47 48 49 50
000
ASUS43 KBIS 310510
RWRND

NORTH DAKOTA REGIONAL WEATHER ROUNDUP
NATIONAL WEATHER SERVICE BISMARCK ND
1200 AM CDT MON AUG 31 2015

NOTE: "FAIR" INDICATES FEW OR NO CLOUDS BELOW 12,000 FEET WITH NO
SIGNIFICANT WEATHER AND/OR OBSTRUCTIONS TO VISIBILITY.


NDZ001>003-009>011-017-310600-
NORTHWEST NORTH DAKOTA

CITY           SKY/WX    TMP DP  RH WIND       PRES   REMARKS
WILLISTON      CLOUDY    67  49  52 NW6       29.72F
MINOT          CLOUDY    67  50  54 NW5       29.65F
MINOT AFB      CLOUDY    64  53  69 NW5       29.65F
$$

NDZ018>021-031>035-040>046-310600-
SOUTHWEST NORTH DAKOTA

CITY           SKY/WX    TMP DP  RH WIND       PRES   REMARKS
BISMARCK       CLOUDY    71  59  65 CALM      29.64F
DICKINSON      CLOUDY    68  51  54 N9        29.71R
GARRISON         N/A     66  56  70 N6        29.66F
HETTINGER ARPT CLOUDY    71  54  54 S9        29.74R HAZE
$$

NDZ004>008-012>016-024-026-027-054-310600-
NORTHEAST NORTH DAKOTA

CITY           SKY/WX    TMP DP  RH WIND       PRES   REMARKS
GRAND FORKS    PTCLDY    73  68  84 S15       29.66S
GRND FRKS AFB  PTCLDY    74  69  85 S13       29.66F
DEVILS LAKE    PTCLDY    73  64  73 S7        29.65S
$$

NDZ022-023-025-028>030-036>039-047>053-310600-
SOUTHEAST NORTH DAKOTA

CITY           SKY/WX    TMP DP  RH WIND       PRES   REMARKS
FARGO          CLEAR     73  65  75 S17G24    29.71F
JAMESTOWN      CLEAR     72  68  87 S14       29.67F
$$



USA.gov is the U.S. government's official web portal to all federal, state and local government web resources and services.